Weather in Tiruchchirappalli

India     10°48′20″N   78°41′41″E
temp.,
°C
wind,
m/s
gust,
m/s
humid.,
%
clouds,
%
prec.,
mm/h
press.,
hPa
HPBL,
m
18 may, wed
wed1823:30+30wnw4567100 0.5 1004361
02:30+28w3670100 0.0 1003370
05:30+28w3370100 0.0 1004244
08:30+30ssw2362100 0.0 1006863
11:30+33sw3452100 0.0 10051579
14:30+34sw4545100 0.1 10021993
17:30+34sw6745100 0.4 10021687
20:30+31sw4653100 0.0 1005509
19 may, thu
thu1923:30+30wsw3563100 0.0 1005470
02:30+27wnw4771100 0.0 1004470
05:30+27w467499 0.0 1006411
08:30+29w6961100 0.1 1007954
11:30+32w685197 0.1 10071774
14:30+33wsw784690 0.1 10041578
17:30+32w9104499 0.2 10051467
20:30+29wnw71256100 0.0 1007592
20 may, fri
fri2023:30+28wnw7125738 0.0 1008471
02:30+27wnw6116095 0.0 1006558
05:30+26wnw6964100 0.0 1007477
08:30+28wnw7858100 0.0 1009672
11:30+29w71053100 0.0 10091269
14:30+33w8114270 0.0 10052047
17:30+33wnw8104371 0.0 10051716
20:30+29wnw7115794 0.0 1008654
21 may, sat
sat2123:30+28wnw71359100 0.0 1008645
02:30+27w61161100 0.0 1006464
05:30+26wnw5866100 0.0 1007315
08:30+29w555978 0.0 1008604
11:30+34w5839100 0.0 10061735
14:30+37wnw993172 0.0 10032417
17:30+35wnw883891 0.0 10031558
20:30+31w7125298 0.0 1006575
22 may, sun
sun2223:30+29wnw81457100 0.1 1006699
02:30+28w61260100 0.0 1004686
05:30+27w6116397 0.0 1005546
08:30+30w7852100 0.0 1007790
11:30+36w7936100 0.0 10051812
14:30+37wnw9932100 0.0 10022483
17:30+34w994198 0.1 10021417
20:30+30w9145163 0.2 1005763